Tracking 27382 objects as of 4-Jun-2023
HD Live streaming from Space Station
objects crossing your sky now

THOR ABLESTAR DEB

Track THOR ABLESTAR DEB now!
10-day predictions


NORAD ID: 121
Int'l Code: 1961-015F
Perigee: 838.0 km
Apogee: 965.0 km
Inclination: 66.7 °
Period: 102.9 minutes
Semi major axis: 7272 km
RCS: 0.26 m2 (medium)
Launch date: June 29, 1961
Source: United States (US)
Launch site: AIR FORCE EASTERN TEST RANGE (AFETR)

Note: This is SATELLITE DEBRIS
Your satellite tracking list
Your tracking list is empty




NASA's NSSDC Master Catalog

Two Line Element Set (TLE):
1 00121U 61015F   23155.62350825  .00000015  00000-0  62078-4 0  9997
2 00121  66.7479 276.4048 0087271  56.8875 304.0546 13.99832467171182
Source of the keplerian elements: AFSPC